Date String (YYYY-MM-DD hh:mm:ss) UTC,Instrument flags,absolute air pressure of the measurement (hPa),sample flow rate (lpm),inlet stack bypass flow (lpm),air temperature of the measurement (°C),ambient temperature measured by the external sensor (°C),aerosol sample conditioner tube jacket temperature (°C),OPC LED temperature (°C),internal box temperature (°C),relative humidity of the measurement (%),span deviation,mass concentration of particles derived from Lorenz-Mie calculation of OPC scattering (μg/m³),mass concentration of particles derived from Lorenz-Mie calculation of OPC scattering (μg/m³),mass concentration of particles derived from Lorenz-Mie calculation of OPC scattering (μg/m³)
DateTimeUTC,F1_M11,P_M11,Q1_M11,Q2_M11,T1_M11,T2_M11,T3_M11,T4_M11,T5_M11,U1_M11,ZSPAN_M11,X2_M11,X0_M11,X1_M11
2023-05-31 01:00:00,SystemResetWarning,0826.1,5.00,000.00,029.3,028.0,000.0,037.6,031.0,19.7,0000.0,0003.58,0010.05,0002.51
2023-05-31 01:01:00,SystemResetWarning,0826.0,5.00,000.00,029.4,028.1,000.0,037.6,031.0,19.5,0000.0,0003.58,0010.06,0002.51
2023-05-31 01:02:00,SystemResetWarning,0826.0,5.00,000.00,029.4,028.1,000.0,037.6,031.1,19.6,0000.0,0003.57,0010.58,0002.51
2023-05-31 01:03:00,SystemResetWarning,0826.0,4.99,000.00,029.4,027.9,000.0,037.7,031.1,20.1,0000.0,0003.56,0011.08,0002.50
2023-05-31 01:04:00,SystemResetWarning,0826.0,4.99,000.00,029.4,026.4,000.0,037.6,030.9,20.0,0000.0,0003.59,0012.74,0002.50
2023-05-31 01:05:00,SystemResetWarning,0825.9,5.01,000.00,029.3,025.5,000.0,037.5,030.7,19.6,0000.0,0003.63,0012.69,0002.51
2023-05-31 01:06:00,SystemResetWarning,0825.9,5.00,000.00,029.3,025.6,000.0,037.5,030.6,20.2,0000.0,0003.66,0012.27,0002.52
2023-05-31 01:07:00,SystemResetWarning,0825.9,4.99,000.00,029.2,025.8,000.0,037.5,030.6,20.3,0000.0,0003.71,0012.44,0002.52
2023-05-31 01:08:00,SystemResetWarning,0825.9,5.01,000.00,029.2,026.2,000.0,037.5,030.7,20.5,0000.0,0003.75,0012.81,0002.54
2023-05-31 01:09:00,SystemResetWarning,0825.9,5.00,000.00,029.2,026.5,000.0,037.5,030.7,20.9,0000.0,0003.78,0013.60,0002.57
2023-05-31 01:10:00,SystemResetWarning,0825.9,4.98,000.00,029.2,026.8,000.0,037.5,030.8,20.0,0000.0,0003.78,0013.17,0002.59
2023-05-31 01:11:00,SystemResetWarning,0825.9,5.01,000.00,029.2,027.1,000.0,037.5,030.8,19.8,0000.0,0003.80,0012.50,0002.60
2023-05-31 01:12:00,SystemResetWarning,0825.9,5.01,000.00,029.2,027.3,000.0,037.5,030.8,19.3,0000.0,0003.82,0012.49,0002.61
2023-05-31 01:13:00,SystemResetWarning,0826.0,4.99,000.00,029.2,027.5,000.0,037.5,030.9,19.6,0000.0,0003.81,0012.38,0002.61
2023-05-31 01:14:00,SystemResetWarning,0825.9,4.99,000.00,029.2,027.6,000.0,037.5,030.9,19.2,0000.0,0003.81,0012.77,0002.62
2023-05-31 01:15:00,SystemResetWarning,0825.9,5.00,000.00,029.3,027.7,000.0,037.5,030.9,19.2,0000.0,0003.75,0010.76,0002.65
2023-05-31 01:16:00,SystemResetWarning,0826.0,4.99,000.00,029.3,027.8,000.0,037.6,031.0,19.8,0000.0,0003.78,0010.87,0002.68
2023-05-31 01:17:00,SystemResetWarning,0826.0,4.99,000.00,029.3,027.9,000.0,037.6,031.0,20.0,0000.0,0003.81,0011.35,0002.71
2023-05-31 01:18:00,SystemResetWarning,0825.9,5.00,000.00,029.3,028.0,000.0,037.6,031.0,19.7,0000.0,0003.86,0011.84,0002.74
2023-05-31 01:19:00,SystemResetWarning,0825.9,5.00,000.00,029.4,028.1,000.0,037.6,031.1,20.0,0000.0,0003.88,0011.63,0002.76
2023-05-31 01:20:00,SystemResetWarning,0825.9,5.00,000.00,029.4,028.1,000.0,037.6,031.1,19.8,0000.0,0003.83,0010.85,0002.76
2023-05-31 01:21:00,SystemResetWarning,0825.9,5.01,000.00,029.4,028.2,000.0,037.7,031.1,19.4,0000.0,0003.86,0010.85,0002.79
2023-05-31 01:22:00,SystemResetWarning,0825.9,5.01,000.00,029.4,028.2,000.0,037.7,031.1,19.4,0000.0,0003.88,0011.85,0002.84
2023-05-31 01:23:00,SystemResetWarning,0825.8,4.99,000.00,029.5,027.7,000.0,037.7,031.1,19.1,0000.0,0003.89,0012.41,0002.88
2023-05-31 01:24:00,SystemResetWarning,0825.9,5.00,000.00,029.4,026.0,000.0,037.6,030.9,19.0,0000.0,0003.90,0011.94,0002.90
2023-05-31 01:25:00,SystemResetWarning,0825.9,5.01,000.00,029.4,025.5,000.0,037.5,030.8,19.5,0000.0,0003.95,0011.17,0002.93
2023-05-31 01:26:00,SystemResetWarning,0825.9,5.01,000.00,029.3,025.6,000.0,037.5,030.7,19.4,0000.0,0003.95,0012.25,0002.97
2023-05-31 01:27:00,SystemResetWarning,0825.9,5.00,000.00,029.2,025.9,000.0,037.5,030.7,19.7,0000.0,0003.95,0012.40,0003.00
2023-05-31 01:28:00,SystemResetWarning,0825.9,5.00,000.00,029.2,026.3,000.0,037.5,030.7,20.1,0000.0,0003.97,0013.01,0003.05
2023-05-31 01:29:00,SystemResetWarning,0825.9,5.00,000.00,029.2,026.6,000.0,037.5,030.8,20.5,0000.0,0003.95,0013.26,0003.09
2023-05-31 01:30:00,SystemResetWarning,0825.9,5.01,000.00,029.2,026.9,000.0,037.5,030.8,21.4,0000.0,0003.95,0013.93,0003.11
2023-05-31 01:31:00,SystemResetWarning,0825.9,5.00,000.00,029.2,027.2,000.0,037.5,030.9,22.0,0000.0,0004.02,0014.18,0003.11
2023-05-31 01:32:00,SystemResetWarning,0825.9,5.00,000.00,029.2,027.4,000.0,037.6,030.9,20.9,0000.0,0004.04,0013.87,0003.11
2023-05-31 01:33:00,SystemResetWarning,0825.9,5.00,000.00,029.3,027.6,000.0,037.6,030.9,21.2,0000.0,0004.05,0013.48,0003.10
2023-05-31 01:34:00,SystemResetWarning,0825.9,5.00,000.00,029.3,027.7,000.0,037.6,031.0,20.7,0000.0,0004.07,0012.91,0003.08
2023-05-31 01:35:00,SystemResetWarning,0826.0,5.00,000.00,029.3,027.8,000.0,037.6,031.0,20.7,0000.0,0004.07,0012.93,0003.09
2023-05-31 01:36:00,SystemResetWarning,0826.0,5.00,000.00,029.3,027.9,000.0,037.6,031.0,20.9,0000.0,0004.05,0013.32,0003.06
2023-05-31 01:37:00,SystemResetWarning,0826.0,5.00,000.00,029.4,028.0,000.0,037.6,031.1,21.0,0000.0,0004.06,0012.67,0003.02
2023-05-31 01:38:00,SystemResetWarning,0826.0,5.01,000.00,029.4,028.1,000.0,037.6,031.1,21.2,0000.0,0004.05,0012.24,0002.97
2023-05-31 01:39:00,SystemResetWarning,0826.0,5.01,000.00,029.4,028.1,000.0,037.7,031.1,21.2,0000.0,0004.03,0011.28,0002.91
2023-05-31 01:40:00,SystemResetWarning,0826.1,4.99,000.00,029.4,028.2,000.0,037.7,031.2,20.5,0000.0,0003.98,0010.56,0002.85
2023-05-31 01:41:00,SystemResetWarning,0826.1,4.99,000.00,029.5,028.3,000.0,037.7,031.2,20.6,0000.0,0003.94,0010.73,0002.81
2023-05-31 01:42:00,SystemResetWarning,0826.0,4.99,000.00,029.5,028.0,000.0,037.7,031.2,20.7,0000.0,0003.89,0011.62,0002.79
2023-05-31 01:43:00,SystemResetWarning,0826.0,4.99,000.00,029.5,026.4,000.0,037.7,031.0,20.6,0000.0,0003.85,0012.08,0002.78
2023-05-31 01:44:00,SystemResetWarning,0826.0,5.01,000.00,029.4,025.5,000.0,037.6,030.8,20.2,0000.0,0003.80,0012.04,0002.75
2023-05-31 01:45:00,SystemResetWarning,0826.0,5.01,000.00,029.3,025.6,000.0,037.5,030.7,19.9,0000.0,0003.79,0012.36,0002.73
2023-05-31 01:46:00,SystemResetWarning,0826.0,5.00,000.00,029.3,025.9,000.0,037.6,030.7,21.2,0000.0,0003.78,0012.66,0002.70
2023-05-31 01:47:00,SystemResetWarning,0826.0,4.99,000.00,029.3,026.2,000.0,037.6,030.8,22.1,0000.0,0003.75,0012.53,0002.69
2023-05-31 01:48:00,SystemResetWarning,0826.0,4.99,000.00,029.3,026.6,000.0,037.6,030.8,22.6,0000.0,0003.72,0013.09,0002.69
2023-05-31 01:49:00,SystemResetWarning,0826.1,5.01,000.00,029.3,026.9,000.0,037.6,030.8,22.5,0000.0,0003.69,0012.93,0002.68
2023-05-31 01:50:00,SystemResetWarning,0826.0,5.01,000.00,029.3,027.1,000.0,037.6,030.9,21.9,0000.0,0003.66,0012.78,0002.67
2023-05-31 01:51:00,SystemResetWarning,0826.0,5.01,000.00,029.3,027.4,000.0,037.6,030.9,21.8,0000.0,0003.63,0013.62,0002.66
2023-05-31 01:52:00,SystemResetWarning,0826.0,5.00,000.00,029.3,027.5,000.0,037.6,031.0,21.2,0000.0,0003.64,0013.61,0002.64
2023-05-31 01:53:00,SystemResetWarning,0826.1,4.99,000.00,029.3,027.7,000.0,037.6,031.0,20.7,0000.0,0003.62,0012.45,0002.62
2023-05-31 01:54:00,SystemResetWarning,0826.1,4.99,000.00,029.3,027.8,000.0,037.6,031.0,20.2,0000.0,0003.64,0012.73,0002.61
2023-05-31 01:55:00,SystemResetWarning,0826.1,5.00,000.00,029.4,027.9,000.0,037.6,031.1,19.8,0000.0,0003.65,0013.19,0002.61
2023-05-31 01:56:00,SystemResetWarning,0826.1,5.00,000.00,029.4,028.0,000.0,037.7,031.1,19.5,0000.0,0003.62,0012.78,0002.61
2023-05-31 01:57:00,SystemResetWarning,0826.1,5.00,000.00,029.4,028.0,000.0,037.7,031.1,19.3,0000.0,0003.58,0012.18,0002.60
2023-05-31 01:58:00,SystemResetWarning,0826.2,5.00,000.00,029.4,028.1,000.0,037.7,031.1,18.9,0000.0,0003.58,0011.94,0002.59
2023-05-31 01:59:00,SystemResetWarning,0826.2,5.00,000.00,029.5,028.1,000.0,037.7,031.1,18.6,0000.0,0003.61,0010.97,0002.59
